Location: Unspecified
(41.5000°N, 0.0000°E)
Time: 08:33:00
(UTC+00:00)

Vanguard 3 - Pass Details

Date: 21 June 2019
Orbit: 507 x 3264 km, 33.4° (Epoch: 21 July)

Event Time Altitude Azimuth Distance (km) Brightness Sun altitude
Rises 08:48:25 0° 201° (SSW) 6,945 11.8 46.1°
Reaches altitude 10° 08:55:37 10° 186° (S) 5,530 11.5 47.4°
Maximum altitude 09:04:39 18° 151° (SSE) 4,168 11.4 49.1°
Drops below altitude 10° 09:11:35 10° 114° (ESE) 4,107 11.6 50.3°
Sets 09:15:40 0° 96° (E) 4,629 11.6 51.1°
